Flag for Canada Weather past 2 weeks in Camrose, Alberta, Canada

Now
23 °F

Passing clouds.


Feels Like: 13 °F
Forecast: 14 / 26 °F
Wind: 9 mph from Southeast

Location: Edmonton International

Current Time: Dec 20, 2014 at 11:34:17 PM

Latest Report: Dec 20, 2014 at 11:00 PM


Visibility: 15 mi

Pressure: 29.43 "Hg

Humidity: 74%

Dew point: 16 °F

Location of CamroseLocation

Historic Weather in Camrose — Graph

°F

Camrose temperature yesterday

Maximum temperature yesterday: 25 °F (at 3:00 PM)
Minimum temperature yesterday: 10 °F (at 1:00 AM)
Average temperature yesterday: 18 °F

Past Weeks' High & Low Weather Summary

 TemperatureHumidityPressure
High48 °F (Dec 9, 7:00 PM)93% (Dec 7, 9:55 AM)30.44 "Hg (Dec 7, 9:55 AM)
Low3 °F (Dec 7, 7:00 PM)50% (Dec 9, 10:00 PM)29.22 "Hg (Dec 11, 4:00 AM)
Average22 °F82%29.93 "Hg
* Reported Dec 5 10:00 PM — Dec 20 10:00 PM, Camrose, Weather by CustomWeather, © 2014

Note: Actual official high and low records may vary slightly from our data, if they occured in-between our weather recording intervals... More about our weather records

Advertising

Camrose weather history for previous 24 hours

 ConditionsComfort  
Time TempWeatherWind HumidityBarometerVisibility
10:00 PM
Dec 20
23 °FPassing clouds.16 mph80%29.44 "Hg20 mi
9:00 PM23 °FPassing clouds.14 mph80%29.48 "Hg15 mi
8:00 PM23 °FPassing clouds.12 mph80%29.52 "Hg15 mi
7:00 PM23 °FPassing clouds.9 mph80%29.56 "Hg15 mi
6:00 PM23 °FPassing clouds.9 mph80%29.58 "Hg15 mi
5:00 PM27 °FPartly cloudy.13 mph74%29.60 "Hg15 mi
4:00 PM27 °FBroken clouds.7 mph64%29.64 "Hg15 mi
3:00 PM27 °FPartly sunny.7 mph69%29.65 "Hg15 mi
2:00 PM30 °FScattered clouds.10 mph64%29.66 "Hg15 mi
1:00 PM30 °FPartly sunny.9 mph64%29.69 "Hg15 mi
12:00 PM28 °FPartly sunny.5 mph69%29.71 "Hg15 mi
11:00 AM21 °FScattered clouds.5 mph86%29.75 "Hg15 mi
10:00 AM16 °FPassing clouds.6 mph86%29.78 "Hg15 mi
9:00 AM14 °FPassing clouds.5 mph85%29.79 "Hg15 mi
8:00 AM9 °FPassing clouds.5 mph85%29.81 "Hg15 mi
7:00 AM10 °FPassing clouds.5 mph85%29.82 "Hg15 mi
6:00 AM12 °FPassing clouds.5 mph92%29.83 "Hg15 mi
5:00 AM12 °FPassing clouds.5 mph85%29.84 "Hg15 mi
4:00 AM12 °FPassing clouds.3 mph85%29.82 "Hg15 mi
3:00 AM14 °FPassing clouds.3 mph92%29.81 "Hg15 mi
2:00 AM18 °FPartly cloudy.6 mph86%29.80 "Hg15 mi
1:00 AM19 °FPassing clouds.No wind86%29.80 "Hg15 mi
12:00 AM21 °FPassing clouds.2 mph86%29.80 "Hg15 mi
11:00 PM
Dec 19
21 °FOvercast.2 mph86%29.80 "Hg12 mi
Weather by CustomWeather, © 2014

See weather overviewHow to use our weather pages